Location: Heisede
(52.2582°N, 9.8523°E)
Time: 20:17:57
(UTC+00:00)

GEOS 3 Rocket - Pass Details

Date: 13 January 2026
Orbit: 768 x 845 km, 115.0° (Epoch: 16 February)

Event Time Altitude Azimuth Distance (km) Brightness Sun altitude
Rises 05:20:30 0° 164° (SSE) 3,303 7.2 -18.1°
Reaches altitude 10° 05:22:58 10° 173° (S) 2,388 6.3 -17.8°
Maximum altitude 05:27:40 34° 238° (WSW) 1,316 4.3 -17.1°
Enters shadow 05:29:30 27° 276° (W) 1,537 4.5 -16.8°
